Location: Beaver Dam Church
(34.5318°N, 88.9828°W)
Time: 23:58:11
(UTC+00:00)

Cosmos 1340 - Pass Details

Date: 29 October 2020
Orbit: 501 x 504 km, 81.2° (Epoch: 04 December)

Event Time Altitude Azimuth Distance (km) Brightness Sun altitude
Rises 23:42:55 0° 358° (N) 2,610 6.2 -8.5°
Reaches altitude 10° 23:45:05 10° 3° (N) 1,722 5.2 -8.9°
Maximum altitude 23:48:46 49° 80° (E) 655 2.8 -9.7°
Drops below altitude 10° 23:52:25 10° 156° (SSE) 1,710 5.2 -10.4°
Sets 23:54:34 0° 162° (SSE) 2,589 6.2 -10.8°
